Terug naar catalogus

ORBCOMM FM 31

ActiefCommunicatieLEO
NORAD 25981·PAYLOAD·🇺🇸 United States

Gelanceerd Dec 4, 1999 vanaf Cape Canaveral Space Force Station

Loading…

Volgende Passages (komende 24 uur)

TLE

VersSource: Space-Track

Epoch: Sep 14, 2026, 08:09 UTC

1 25981U 99065B   26257.34020867  .00000448  00000-0  19266-3 0  9999
2 25981  45.0221  91.6173 0004225 142.6769 217.4373 14.38172287399366

Volg ORBCOMM FM 31 in realtime met AllMySat

Download on the App Store